ABY547 OPKC-OMSJ

Flight info

Callsign ABY547
Flight time 1h 41m
Altitude 38000
Route MELOM DCT VUSET DCT MENSA DCT NOLSU
Aircraft A320/M-SDE3FGHIRWY/LB1

Departure

Time 2026-04-29 10:17
Airport Jinnah International Airport (OPKC)

Arrival

Time 2026-04-29 11:58
Airport Sharjah International Airport (OMSJ)
Time Latitude Longitude Altitude Speed Heading
2026-04-29 09:58 24.90235 67.16848 101 ft 0 kts 88°
2026-04-29 10:08 24.90235 67.16833 115 ft 4 kts 87°
2026-04-29 10:08 24.90234 67.16804 101 ft 4 kts 92°
2026-04-29 10:08 24.90237 67.16778 100 ft 4 kts 99°
2026-04-29 10:08 24.90236 67.16756 101 ft 4 kts 27°
2026-04-29 10:09 24.90216 67.16758 98 ft 4 kts 337°
2026-04-29 10:09 24.90191 67.16769 100 ft 2 kts 342°
2026-04-29 10:09 24.90189 67.16770 100 ft 0 kts 343°
2026-04-29 10:11 24.90196 67.16768 101 ft 3 kts 343°
2026-04-29 10:11 24.90233 67.16755 101 ft 8 kts 343°
2026-04-29 10:12 24.90303 67.16732 101 ft 13 kts 346°
2026-04-29 10:12 24.90402 67.16705 101 ft 11 kts 343°
2026-04-29 10:12 24.90460 67.16698 102 ft 7 kts 19°
2026-04-29 10:12 24.90486 67.16736 101 ft 7 kts 74°
2026-04-29 10:13 24.90503 67.16802 102 ft 11 kts 75°
2026-04-29 10:13 24.90527 67.16896 102 ft 14 kts 75°
2026-04-29 10:13 24.90555 67.17008 102 ft 15 kts 75°
2026-04-29 10:13 24.90581 67.17111 102 ft 13 kts 74°
2026-04-29 10:14 24.90605 67.17204 102 ft 12 kts 73°
2026-04-29 10:14 24.90632 67.17304 101 ft 16 kts 73°
2026-04-29 10:14 24.90673 67.17412 102 ft 15 kts 49°
2026-04-29 10:14 24.90750 67.17467 104 ft 12 kts 31°
2026-04-29 10:15 24.90815 67.17491 106 ft 8 kts 351°
2026-04-29 10:15 24.90859 67.17481 107 ft 5 kts 338°
2026-04-29 10:15 24.90869 67.17454 107 ft 3 kts 265°
2026-04-29 10:15 24.90861 67.17425 107 ft 5 kts 252°
2026-04-29 10:16 24.90850 67.17385 107 ft 6 kts 253°
2026-04-29 10:16 24.90841 67.17351 106 ft 9 kts 253°
2026-04-29 10:16 24.90708 67.16857 107 ft 101 kts 254°
2026-04-29 10:16 24.90456 67.15889 144 ft 156 kts 252°
2026-04-29 10:17 24.90168 67.14715 800 ft 159 kts 251°
2026-04-29 10:17 24.89763 67.13563 1389 ft 170 kts 231°
2026-04-29 10:17 24.88894 67.12558 1747 ft 192 kts 227°
2026-04-29 10:17 24.87912 67.11422 1965 ft 212 kts 227°
2026-04-29 10:18 24.86851 67.10172 2102 ft 233 kts 228°
2026-04-29 10:18 24.85720 67.08831 2431 ft 244 kts 227°
2026-04-29 10:18 24.84568 67.07464 2839 ft 249 kts 227°
2026-04-29 10:18 24.83380 67.06055 3264 ft 252 kts 227°
2026-04-29 10:19 24.82305 67.04485 3463 ft 266 kts 246°
2026-04-29 10:19 24.81888 67.02478 3725 ft 273 kts 265°
2026-04-29 10:19 24.81709 67.00386 4128 ft 276 kts 265°
2026-04-29 10:19 24.81532 66.98279 4553 ft 277 kts 265°
2026-04-29 10:20 24.81350 66.96158 4978 ft 278 kts 265°
2026-04-29 10:20 24.81165 66.94039 5434 ft 278 kts 265°
2026-04-29 10:20 24.80981 66.91923 5859 ft 278 kts 265°
2026-04-29 10:20 24.80794 66.89800 6282 ft 279 kts 265°
2026-04-29 10:21 24.80607 66.87675 6721 ft 277 kts 265°
2026-04-29 10:21 24.80418 66.85526 7335 ft 280 kts 264°
2026-04-29 10:21 24.80234 66.83425 8196 ft 278 kts 265°
2026-04-29 10:21 24.80046 66.81278 9031 ft 280 kts 265°
2026-04-29 10:22 24.79862 66.79163 9767 ft 284 kts 265°
2026-04-29 10:22 24.79667 66.76919 10040 ft 306 kts 265°
2026-04-29 10:22 24.79458 66.74534 10395 ft 321 kts 265°
2026-04-29 10:22 24.79241 66.72070 11021 ft 326 kts 265°
2026-04-29 10:23 24.79019 66.69580 11742 ft 328 kts 266°
2026-04-29 10:23 24.78790 66.67016 12021 ft 346 kts 266°
2026-04-29 10:23 24.78551 66.64302 12150 ft 366 kts 266°
2026-04-29 10:23 24.78299 66.61443 12351 ft 381 kts 266°
2026-04-29 10:24 24.78037 66.58524 12836 ft 386 kts 266°
2026-04-29 10:24 24.77771 66.55576 13395 ft 389 kts 266°
2026-04-29 10:24 24.77504 66.52603 13887 ft 392 kts 266°
2026-04-29 10:24 24.77237 66.49649 14379 ft 393 kts 266°
2026-04-29 10:25 24.76965 66.46644 14892 ft 395 kts 266°
2026-04-29 10:25 24.76693 66.43628 15391 ft 397 kts 266°
2026-04-29 10:25 24.76420 66.40597 15880 ft 399 kts 266°
2026-04-29 10:25 24.76148 66.37560 16362 ft 400 kts 266°
2026-04-29 10:26 24.75873 66.34503 16837 ft 402 kts 266°
2026-04-29 10:26 24.75593 66.31425 17311 ft 404 kts 266°
2026-04-29 10:26 24.75311 66.28342 17776 ft 406 kts 265°
2026-04-29 10:26 24.75028 66.25248 18201 ft 408 kts 265°
2026-04-29 10:27 24.74459 66.19010 18969 ft 412 kts 265°
2026-04-29 10:27 24.74172 66.15885 19355 ft 414 kts 265°
2026-04-29 10:27 24.73880 66.12729 19739 ft 415 kts 265°
2026-04-29 10:28 24.73584 66.09556 20113 ft 417 kts 265°
2026-04-29 10:28 24.73287 66.06373 20491 ft 419 kts 265°
2026-04-29 10:28 24.72989 66.03176 20856 ft 421 kts 265°
2026-04-29 10:28 24.72689 65.99963 21211 ft 423 kts 265°
2026-04-29 10:29 24.72386 65.96730 21570 ft 425 kts 265°
2026-04-29 10:29 24.72083 65.93485 21924 ft 427 kts 265°
2026-04-29 10:29 24.71781 65.90228 22261 ft 429 kts 265°
2026-04-29 10:29 24.71482 65.86996 22597 ft 431 kts 265°
2026-04-29 10:30 24.71173 65.83707 22926 ft 433 kts 265°
2026-04-29 10:30 24.70860 65.80402 23248 ft 435 kts 265°
2026-04-29 10:30 24.70546 65.77085 23517 ft 437 kts 265°
2026-04-29 10:30 24.70231 65.73756 23787 ft 439 kts 265°
2026-04-29 10:31 24.69911 65.70414 24055 ft 440 kts 266°
2026-04-29 10:31 24.69591 65.67059 24325 ft 442 kts 266°
2026-04-29 10:31 24.69271 65.63691 24589 ft 443 kts 266°
2026-04-29 10:31 24.68948 65.60318 24849 ft 444 kts 266°
2026-04-29 10:32 24.68622 65.56933 25089 ft 446 kts 266°
2026-04-29 10:32 24.68291 65.53534 25335 ft 448 kts 266°
2026-04-29 10:32 24.68066 65.51232 25504 ft 448 kts 266°
2026-04-29 10:32 24.67733 65.47835 25846 ft 447 kts 266°
2026-04-29 10:33 24.67402 65.44444 26224 ft 446 kts 266°
2026-04-29 10:33 24.67075 65.41065 26590 ft 444 kts 267°
2026-04-29 10:33 24.66749 65.37688 26957 ft 443 kts 267°
2026-04-29 10:33 24.66424 65.34321 27330 ft 442 kts 267°
2026-04-29 10:34 24.66098 65.30956 27704 ft 441 kts 267°
2026-04-29 10:34 24.65770 65.27611 28059 ft 440 kts 267°
2026-04-29 10:34 24.65441 65.24271 28405 ft 439 kts 267°
2026-04-29 10:34 24.65111 65.20936 28767 ft 439 kts 267°
2026-04-29 10:35 24.64781 65.17604 29141 ft 438 kts 268°
2026-04-29 10:35 24.64457 65.14284 29522 ft 436 kts 268°
2026-04-29 10:35 24.64134 65.10965 29878 ft 435 kts 268°
2026-04-29 10:35 24.63813 65.07714 30173 ft 435 kts 268°
2026-04-29 10:36 24.63483 65.04418 30462 ft 434 kts 268°
2026-04-29 10:36 24.63153 65.01118 30742 ft 434 kts 268°
2026-04-29 10:36 24.62821 64.97819 31020 ft 434 kts 268°
2026-04-29 10:36 24.62491 64.94523 31213 ft 435 kts 268°
2026-04-29 10:37 24.62158 64.91215 31446 ft 436 kts 267°
2026-04-29 10:37 24.61822 64.87887 31703 ft 436 kts 267°
2026-04-29 10:37 24.61486 64.84572 31974 ft 436 kts 267°
2026-04-29 10:37 24.61148 64.81256 32247 ft 436 kts 267°
2026-04-29 10:38 24.60812 64.77947 32515 ft 436 kts 267°
2026-04-29 10:38 24.60478 64.74644 32783 ft 435 kts 267°
2026-04-29 10:38 24.60143 64.71339 33068 ft 435 kts 267°
2026-04-29 10:38 24.59809 64.68038 33341 ft 434 kts 267°
2026-04-29 10:39 24.59477 64.64741 33624 ft 434 kts 267°
2026-04-29 10:39 24.59143 64.61445 33876 ft 434 kts 267°
2026-04-29 10:39 24.58805 64.58150 34129 ft 433 kts 267°
2026-04-29 10:39 24.58465 64.54866 34397 ft 432 kts 267°
2026-04-29 10:40 24.58123 64.51597 34690 ft 430 kts 266°
2026-04-29 10:40 24.57781 64.48334 34961 ft 428 kts 266°
2026-04-29 10:40 24.57444 64.45090 35214 ft 427 kts 266°
2026-04-29 10:40 24.57106 64.41852 35458 ft 426 kts 266°
2026-04-29 10:41 24.56772 64.38620 35689 ft 425 kts 266°
2026-04-29 10:41 24.56442 64.35438 35903 ft 425 kts 266°
2026-04-29 10:41 24.56106 64.32218 36122 ft 424 kts 266°
2026-04-29 10:41 24.55769 64.28999 36341 ft 424 kts 266°
2026-04-29 10:42 24.55434 64.25788 36559 ft 423 kts 266°
2026-04-29 10:42 24.55101 64.22581 36771 ft 422 kts 266°
2026-04-29 10:42 24.54767 64.19381 36983 ft 421 kts 266°
2026-04-29 10:42 24.54431 64.16186 37185 ft 421 kts 266°
2026-04-29 10:43 24.54093 64.12993 37392 ft 420 kts 266°
2026-04-29 10:43 24.53754 64.09809 37595 ft 419 kts 266°
2026-04-29 10:43 24.53414 64.06622 37698 ft 421 kts 266°
2026-04-29 10:44 24.52728 64.00216 37712 ft 423 kts 266°
2026-04-29 10:44 24.52042 63.93802 37713 ft 423 kts 266°
2026-04-29 10:45 24.51357 63.87423 37711 ft 423 kts 265°
2026-04-29 10:45 24.50667 63.81011 37709 ft 423 kts 265°
2026-04-29 10:46 24.49970 63.74599 37713 ft 423 kts 265°
2026-04-29 10:46 24.49267 63.68183 37709 ft 423 kts 265°
2026-04-29 10:47 24.48570 63.61760 37716 ft 424 kts 265°
2026-04-29 10:47 24.47865 63.55329 37720 ft 424 kts 265°
2026-04-29 10:48 24.47160 63.48903 37718 ft 424 kts 265°
2026-04-29 10:48 24.46450 63.42472 37718 ft 424 kts 265°
2026-04-29 10:49 24.45736 63.36044 37717 ft 424 kts 265°
2026-04-29 10:49 24.45023 63.29617 37716 ft 424 kts 265°
2026-04-29 10:50 24.44310 63.23229 37717 ft 424 kts 265°
2026-04-29 10:50 24.43584 63.16806 37714 ft 424 kts 265°
2026-04-29 10:51 24.42855 63.10382 37707 ft 424 kts 265°
2026-04-29 10:51 24.42128 63.03959 37699 ft 424 kts 265°
2026-04-29 10:52 24.41403 62.97527 37702 ft 425 kts 265°
2026-04-29 10:52 24.40674 62.91088 37705 ft 425 kts 265°
2026-04-29 10:53 24.39941 62.84647 37707 ft 425 kts 265°
2026-04-29 10:53 24.39199 62.78206 37707 ft 426 kts 265°
2026-04-29 10:54 24.38453 62.71759 37705 ft 426 kts 265°
2026-04-29 10:54 24.37711 62.65316 37705 ft 426 kts 265°
2026-04-29 10:55 24.36964 62.58872 37719 ft 426 kts 265°
2026-04-29 10:55 24.36217 62.52426 37719 ft 426 kts 265°
2026-04-29 10:56 24.35466 62.46008 37704 ft 426 kts 264°
2026-04-29 10:56 24.34699 62.39562 37706 ft 426 kts 264°
2026-04-29 10:57 24.33936 62.33118 37705 ft 426 kts 264°
2026-04-29 10:57 24.33178 62.26675 37718 ft 426 kts 264°
2026-04-29 10:58 24.32413 62.20233 37705 ft 426 kts 264°
2026-04-29 10:58 24.31650 62.13797 37717 ft 427 kts 264°
2026-04-29 10:59 24.30883 62.07332 37710 ft 427 kts 264°
2026-04-29 10:59 24.30106 62.00875 37715 ft 427 kts 264°
2026-04-29 11:00 24.29328 61.94437 37719 ft 427 kts 264°
2026-04-29 11:00 24.28546 61.87975 37718 ft 427 kts 264°
2026-04-29 11:01 24.27763 61.81522 37719 ft 427 kts 264°
2026-04-29 11:01 24.26984 61.75111 37718 ft 427 kts 264°
2026-04-29 11:02 24.26197 61.68659 37726 ft 427 kts 264°
2026-04-29 11:02 24.25405 61.62208 37713 ft 427 kts 264°
2026-04-29 11:03 24.24610 61.55757 37712 ft 427 kts 264°
2026-04-29 11:03 24.23818 61.49306 37713 ft 427 kts 264°
2026-04-29 11:04 24.23014 61.42847 37730 ft 428 kts 264°
2026-04-29 11:04 24.22211 61.36389 37717 ft 428 kts 264°
2026-04-29 11:05 24.21399 61.29928 37711 ft 428 kts 263°
2026-04-29 11:05 24.20592 61.23467 37717 ft 428 kts 264°
2026-04-29 11:06 24.19784 61.17001 37718 ft 428 kts 263°
2026-04-29 11:06 24.18972 61.10531 37716 ft 428 kts 263°
2026-04-29 11:07 24.18152 61.04070 37711 ft 428 kts 263°
2026-04-29 11:07 24.17328 60.97611 37729 ft 428 kts 263°
2026-04-29 11:08 24.16509 60.91193 37744 ft 428 kts 263°
2026-04-29 11:08 24.15678 60.84742 37732 ft 428 kts 263°
2026-04-29 11:09 24.14852 60.78320 37740 ft 427 kts 263°
2026-04-29 11:09 24.14027 60.71883 37722 ft 427 kts 263°
2026-04-29 11:10 24.13199 60.65442 37716 ft 427 kts 263°
2026-04-29 11:10 24.12362 60.58995 37735 ft 427 kts 263°
2026-04-29 11:11 24.11526 60.52550 37737 ft 428 kts 263°
2026-04-29 11:11 24.10680 60.46101 37732 ft 428 kts 263°
2026-04-29 11:12 24.09835 60.39643 37733 ft 428 kts 263°
2026-04-29 11:12 24.08989 60.33180 37733 ft 429 kts 263°
2026-04-29 11:13 24.08143 60.26760 37740 ft 429 kts 263°
2026-04-29 11:13 24.07287 60.20299 37743 ft 429 kts 263°
2026-04-29 11:14 24.06431 60.13828 37742 ft 430 kts 262°
2026-04-29 11:14 24.05579 60.07373 37754 ft 430 kts 262°
2026-04-29 11:15 24.04712 60.00922 37751 ft 430 kts 262°
2026-04-29 11:15 24.03844 59.94473 37745 ft 430 kts 262°
2026-04-29 11:16 24.02970 59.87996 37748 ft 430 kts 262°
2026-04-29 11:16 24.02099 59.81516 37752 ft 430 kts 262°
2026-04-29 11:17 24.01372 59.76134 37751 ft 431 kts 262°
2026-04-29 11:17 24.00497 59.69669 37755 ft 431 kts 262°
2026-04-29 11:18 23.99616 59.63193 37752 ft 431 kts 262°
2026-04-29 11:18 23.98725 59.56712 37752 ft 431 kts 262°
2026-04-29 11:19 23.97835 59.50222 37760 ft 431 kts 262°
2026-04-29 11:19 23.96947 59.43756 37753 ft 431 kts 262°
2026-04-29 11:20 23.96046 59.37269 37755 ft 432 kts 262°
2026-04-29 11:20 23.95158 59.30841 37756 ft 432 kts 262°
2026-04-29 11:21 23.94261 59.24339 37757 ft 432 kts 262°
2026-04-29 11:21 23.93392 59.17836 37755 ft 432 kts 266°
2026-04-29 11:22 23.93940 59.11343 37757 ft 433 kts 285°
2026-04-29 11:22 23.96249 59.05233 37755 ft 435 kts 292°
2026-04-29 11:23 23.98730 58.99204 37750 ft 435 kts 292°
2026-04-29 11:23 24.01208 58.93149 37755 ft 436 kts 292°
2026-04-29 11:24 24.03687 58.87098 37753 ft 436 kts 292°
2026-04-29 11:24 24.06170 58.81050 37756 ft 436 kts 292°
2026-04-29 11:25 24.08633 58.75031 37756 ft 435 kts 292°
2026-04-29 11:25 24.11100 58.68979 37758 ft 435 kts 292°
2026-04-29 11:26 24.14786 58.59919 37766 ft 435 kts 292°
2026-04-29 11:26 24.17252 58.53867 37774 ft 435 kts 292°
2026-04-29 11:27 24.19715 58.47808 37772 ft 435 kts 291°
2026-04-29 11:27 24.22155 58.41784 37773 ft 435 kts 291°
2026-04-29 11:28 24.24600 58.35751 37764 ft 434 kts 291°
2026-04-29 11:28 24.27042 58.29723 37764 ft 434 kts 291°
2026-04-29 11:29 24.29491 58.23663 37771 ft 434 kts 291°
2026-04-29 11:29 24.31934 58.17597 37768 ft 434 kts 291°
2026-04-29 11:30 24.34375 58.11531 37765 ft 435 kts 291°
2026-04-29 11:30 24.36796 58.05504 37785 ft 435 kts 291°
2026-04-29 11:31 24.39243 57.99431 37776 ft 434 kts 291°
2026-04-29 11:31 24.41676 57.93372 37770 ft 434 kts 291°
2026-04-29 11:32 24.44098 57.87310 37770 ft 434 kts 291°
2026-04-29 11:32 24.46518 57.81246 37777 ft 434 kts 291°
2026-04-29 11:33 24.47728 57.78218 37665 ft 432 kts 291°
2026-04-29 11:33 24.48938 57.75193 37015 ft 432 kts 291°
2026-04-29 11:33 24.50144 57.72175 36273 ft 432 kts 291°
2026-04-29 11:33 24.51345 57.69165 35542 ft 433 kts 291°
2026-04-29 11:34 24.52556 57.66126 34802 ft 434 kts 291°
2026-04-29 11:34 24.53769 57.63084 34060 ft 436 kts 291°
2026-04-29 11:34 24.54985 57.60029 33253 ft 437 kts 291°
2026-04-29 11:34 24.56186 57.57005 32425 ft 437 kts 291°
2026-04-29 11:35 24.57403 57.53940 31600 ft 437 kts 291°
2026-04-29 11:35 24.58613 57.50892 30780 ft 437 kts 291°
2026-04-29 11:35 24.59829 57.47833 30125 ft 436 kts 291°
2026-04-29 11:35 24.61046 57.44777 29880 ft 437 kts 291°
2026-04-29 11:36 24.62261 57.41716 29341 ft 435 kts 291°
2026-04-29 11:36 24.63469 57.38666 28204 ft 437 kts 291°
2026-04-29 11:36 24.64689 57.35582 27466 ft 441 kts 291°
2026-04-29 11:36 24.65919 57.32472 26917 ft 445 kts 291°
2026-04-29 11:37 24.67158 57.29336 26377 ft 448 kts 291°
2026-04-29 11:37 24.68400 57.26186 25853 ft 450 kts 291°
2026-04-29 11:37 24.69647 57.23020 25349 ft 452 kts 290°
2026-04-29 11:37 24.70895 57.19850 24843 ft 453 kts 290°
2026-04-29 11:38 24.72148 57.16667 24353 ft 454 kts 290°
2026-04-29 11:38 24.73405 57.13474 23853 ft 454 kts 290°
2026-04-29 11:38 24.74661 57.10291 23374 ft 452 kts 290°
2026-04-29 11:38 24.75914 57.07120 22803 ft 451 kts 290°
2026-04-29 11:39 24.77157 57.03966 22239 ft 448 kts 290°
2026-04-29 11:39 24.78385 57.00835 21683 ft 445 kts 290°
2026-04-29 11:39 24.79604 56.97725 21138 ft 442 kts 290°
2026-04-29 11:39 24.80865 56.94681 20603 ft 440 kts 294°
2026-04-29 11:40 24.82281 56.91713 20070 ft 437 kts 295°
2026-04-29 11:40 24.83727 56.88785 19564 ft 434 kts 296°
2026-04-29 11:40 24.85194 56.85872 19067 ft 431 kts 297°
2026-04-29 11:40 24.86651 56.83001 18630 ft 428 kts 297°
2026-04-29 11:41 24.88079 56.80177 18187 ft 425 kts 297°
2026-04-29 11:41 24.89502 56.77339 17695 ft 422 kts 297°
2026-04-29 11:41 24.90911 56.74512 17183 ft 420 kts 297°
2026-04-29 11:41 24.92305 56.71703 16687 ft 418 kts 297°
2026-04-29 11:42 24.93694 56.68892 16203 ft 416 kts 296°
2026-04-29 11:42 24.95073 56.66092 15853 ft 415 kts 296°
2026-04-29 11:42 24.96446 56.63304 15728 ft 414 kts 296°
2026-04-29 11:42 24.97825 56.60506 15768 ft 415 kts 296°
2026-04-29 11:43 24.99206 56.57713 15764 ft 415 kts 296°
2026-04-29 11:43 25.00591 56.54918 15725 ft 414 kts 296°
2026-04-29 11:43 25.01948 56.52177 15132 ft 408 kts 296°
2026-04-29 11:43 25.03309 56.49421 14598 ft 409 kts 296°
2026-04-29 11:44 25.04665 56.46670 14111 ft 408 kts 296°
2026-04-29 11:44 25.06014 56.43927 13637 ft 406 kts 296°
2026-04-29 11:44 25.07360 56.41194 13106 ft 403 kts 297°
2026-04-29 11:44 25.08682 56.38517 12587 ft 393 kts 297°
2026-04-29 11:45 25.09975 56.35897 12065 ft 385 kts 297°
2026-04-29 11:45 25.11238 56.33334 11558 ft 377 kts 297°
2026-04-29 11:45 25.12476 56.30814 11048 ft 369 kts 296°
2026-04-29 11:45 25.13430 56.28238 10562 ft 358 kts 281°
2026-04-29 11:46 25.13782 56.25565 10070 ft 349 kts 275°
2026-04-29 11:46 25.14048 56.22922 9617 ft 343 kts 275°
2026-04-29 11:46 25.14301 56.20320 9089 ft 337 kts 275°
2026-04-29 11:46 25.14541 56.17766 8572 ft 333 kts 275°
2026-04-29 11:47 25.14775 56.15246 8133 ft 327 kts 275°
2026-04-29 11:47 25.15004 56.12810 8011 ft 311 kts 275°
2026-04-29 11:47 25.15226 56.10488 7860 ft 299 kts 275°
2026-04-29 11:47 25.15445 56.08216 7434 ft 297 kts 276°
2026-04-29 11:48 25.15661 56.05961 7036 ft 294 kts 276°
2026-04-29 11:48 25.15874 56.03719 6576 ft 293 kts 276°
2026-04-29 11:48 25.16085 56.01486 6149 ft 291 kts 277°
2026-04-29 11:48 25.16288 55.99316 6006 ft 278 kts 276°
2026-04-29 11:49 25.16483 55.97237 5755 ft 270 kts 277°
2026-04-29 11:49 25.16674 55.95202 5495 ft 263 kts 277°
2026-04-29 11:49 25.16863 55.93216 5209 ft 257 kts 277°
2026-04-29 11:49 25.17047 55.91288 4927 ft 251 kts 278°
2026-04-29 11:50 25.17224 55.89421 4651 ft 245 kts 279°
2026-04-29 11:50 25.17399 55.87571 4413 ft 239 kts 279°
2026-04-29 11:50 25.17568 55.85765 4170 ft 234 kts 278°
2026-04-29 11:50 25.17733 55.83991 3934 ft 229 kts 278°
2026-04-29 11:51 25.17891 55.82289 3696 ft 223 kts 280°
2026-04-29 11:51 25.18048 55.80604 3459 ft 218 kts 280°
2026-04-29 11:51 25.18201 55.78966 3223 ft 212 kts 279°
2026-04-29 11:51 25.18444 55.77399 3066 ft 202 kts 292°
2026-04-29 11:52 25.19062 55.76054 3046 ft 195 kts 306°
2026-04-29 11:52 25.19784 55.74809 3030 ft 189 kts 305°
2026-04-29 11:52 25.20484 55.73599 3028 ft 184 kts 306°
2026-04-29 11:52 25.21170 55.72415 3027 ft 183 kts 306°
2026-04-29 11:53 25.21853 55.71234 3023 ft 182 kts 305°
2026-04-29 11:53 25.22542 55.70045 3026 ft 184 kts 304°
2026-04-29 11:53 25.23235 55.68849 3020 ft 187 kts 305°
2026-04-29 11:53 25.23929 55.67646 2884 ft 181 kts 305°
2026-04-29 11:54 25.24581 55.66519 2707 ft 168 kts 306°
2026-04-29 11:54 25.25170 55.65498 2512 ft 148 kts 305°
2026-04-29 11:54 25.25706 55.64572 2332 ft 139 kts 306°
2026-04-29 11:54 25.26216 55.63690 2164 ft 135 kts 307°
2026-04-29 11:55 25.26719 55.62821 1994 ft 135 kts 306°
2026-04-29 11:55 25.27223 55.61949 1824 ft 135 kts 304°
2026-04-29 11:55 25.27729 55.61073 1657 ft 134 kts 306°
2026-04-29 11:55 25.28230 55.60208 1486 ft 134 kts 306°
2026-04-29 11:56 25.28734 55.59334 1320 ft 134 kts 306°
2026-04-29 11:56 25.29231 55.58474 1163 ft 132 kts 306°
2026-04-29 11:56 25.29728 55.57613 993 ft 132 kts 308°
2026-04-29 11:56 25.30223 55.56755 845 ft 132 kts 307°
2026-04-29 11:57 25.30717 55.55905 691 ft 131 kts 304°
2026-04-29 11:57 25.31207 55.55057 518 ft 131 kts 303°
2026-04-29 11:57 25.31699 55.54202 323 ft 132 kts 303°
2026-04-29 11:57 25.32192 55.53356 177 ft 130 kts 302°
2026-04-29 11:58 25.32653 55.52552 118 ft 109 kts 301°
2026-04-29 11:58 25.32963 55.52007 116 ft 59 kts 302°
2026-04-29 11:58 25.33138 55.51697 116 ft 42 kts 300°
2026-04-29 11:58 25.33197 55.51462 118 ft 30 kts 272°
2026-04-29 11:59 25.33204 55.51263 116 ft 25 kts 272°
2026-04-29 11:59 25.33232 55.51081 113 ft 22 kts 296°
2026-04-29 11:59 25.33295 55.50930 114 ft 19 kts 285°
2026-04-29 11:59 25.33219 55.50847 112 ft 17 kts 197°
2026-04-29 12:00 25.33151 55.50869 113 ft 16 kts 133°
2026-04-29 12:00 25.33091 55.50977 115 ft 12 kts 121°
2026-04-29 12:00 25.33063 55.51026 113 ft 11 kts 122°